4XCCM LLMG-LLMG

Flight info

Callsign 4XCCM
Flight time N/A
Altitude 6000
Route CVFR DEP SAKNAI ENROUTE AERIAL PHOTGRAPHY OVER ASHKELON ASHDOD DISTRICT AREA
Aircraft PA27/L-V/N

Departure

Time 2026-05-04 14:07
Airport Megiddo Airport (LLMG)

Arrival

Time N/A
Airport Megiddo Airport (LLMG)
Time Latitude Longitude Altitude Speed Heading
2026-05-04 14:01 32.59497 35.23611 189 ft 0 kts 245°
2026-05-04 14:03 32.59496 35.23595 199 ft 6 kts 331°
2026-05-04 14:03 32.59579 35.23543 196 ft 16 kts 326°
2026-05-04 14:03 32.59642 35.23494 190 ft 0 kts 320°
2026-05-04 14:04 32.59642 35.23495 189 ft 0 kts 320°
2026-05-04 14:04 32.59642 35.23494 190 ft 2 kts 321°
2026-05-04 14:05 32.59698 35.23758 186 ft 52 kts 88°
2026-05-04 14:05 32.59694 35.24015 184 ft 8 kts 12°
2026-05-04 14:05 32.59696 35.23971 184 ft 5 kts 271°
2026-05-04 14:06 32.59697 35.23957 184 ft 0 kts 271°
2026-05-04 14:06 32.59700 35.23760 186 ft 62 kts 271°
2026-05-04 14:07 32.59723 35.23084 348 ft 92 kts 270°
2026-05-04 14:07 32.59738 35.22286 573 ft 100 kts 272°
2026-05-04 14:07 32.59723 35.21445 777 ft 104 kts 255°
2026-05-04 14:07 32.59153 35.20940 1104 ft 108 kts 210°
2026-05-04 14:08 32.58350 35.21095 1345 ft 117 kts 183°
2026-05-04 14:08 32.58135 35.21080 1391 ft 106 kts 207°
2026-05-04 14:10 32.57504 35.19891 1677 ft 103 kts 250°
2026-05-04 14:10 32.57185 35.19110 1824 ft 110 kts 237°
2026-05-04 14:10 32.56631 35.18476 2032 ft 106 kts 234°
2026-05-04 14:10 32.56167 35.17867 2385 ft 97 kts 231°
2026-05-04 14:11 32.55710 35.17308 2749 ft 92 kts 231°
2026-05-04 14:11 32.54799 35.16197 3491 ft 97 kts 236°
2026-05-04 14:11 32.54325 35.15627 3868 ft 96 kts 234°
2026-05-04 14:12 32.53858 35.15062 4243 ft 95 kts 234°
2026-05-04 14:12 32.53397 35.14506 4632 ft 93 kts 233°
2026-05-04 14:12 32.52515 35.13443 5363 ft 89 kts 233°
2026-05-04 14:13 32.52077 35.12915 5740 ft 91 kts 233°
2026-05-04 14:13 32.51698 35.12200 5733 ft 110 kts 250°
2026-05-04 14:13 32.51398 35.11345 5846 ft 114 kts 249°
2026-05-04 14:13 32.51078 35.10464 5963 ft 119 kts 249°
2026-05-04 14:14 32.50741 35.09538 5981 ft 125 kts 249°
2026-05-04 14:14 32.50088 35.07750 5974 ft 116 kts 249°
2026-05-04 14:14 32.49769 35.06874 5972 ft 115 kts 248°
2026-05-04 14:15 32.49137 35.05142 5969 ft 114 kts 248°
2026-05-04 14:15 32.48523 35.03415 5965 ft 113 kts 253°
2026-05-04 14:16 32.48632 35.01540 5961 ft 115 kts 271°
2026-05-04 14:16 32.48710 35.00592 5965 ft 116 kts 271°
2026-05-04 14:17 32.48869 34.98609 5968 ft 128 kts 271°
2026-05-04 14:17 32.48953 34.97548 5978 ft 130 kts 271°
2026-05-04 14:17 32.49124 34.95405 5977 ft 132 kts 271°
2026-05-04 14:18 32.49209 34.94326 5975 ft 132 kts 271°
2026-05-04 14:18 32.49379 34.92167 5979 ft 132 kts 271°
2026-05-04 14:19 32.49549 34.90004 5977 ft 132 kts 271°
2026-05-04 14:19 32.49635 34.88911 5979 ft 133 kts 271°
2026-05-04 14:19 32.49765 34.87828 5970 ft 133 kts 274°
2026-05-04 14:19 32.49864 34.86743 5975 ft 133 kts 272°
2026-05-04 14:20 32.49958 34.85652 5974 ft 133 kts 271°
2026-05-04 14:20 32.49692 34.84637 5957 ft 134 kts 235°
2026-05-04 14:20 32.48878 34.84094 5957 ft 145 kts 201°
2026-05-04 14:21 32.46736 34.83722 5980 ft 164 kts 198°
2026-05-04 14:21 32.45600 34.83462 5974 ft 167 kts 198°
2026-05-04 14:21 32.44841 34.83283 5975 ft 168 kts 198°
2026-05-04 14:21 32.43298 34.82922 5981 ft 169 kts 198°
2026-05-04 14:22 32.42664 34.82773 5980 ft 170 kts 198°
2026-05-04 14:22 32.41095 34.82407 5980 ft 171 kts 199°
2026-05-04 14:22 32.40309 34.82223 5981 ft 170 kts 199°
2026-05-04 14:22 32.39147 34.81952 5979 ft 170 kts 198°
2026-05-04 14:23 32.36826 34.81409 5981 ft 170 kts 198°
2026-05-04 14:23 32.35669 34.81139 5983 ft 170 kts 198°
2026-05-04 14:23 32.34519 34.80870 5982 ft 170 kts 199°
2026-05-04 14:24 32.33354 34.80597 5984 ft 170 kts 199°
2026-05-04 14:24 32.32241 34.80187 5983 ft 167 kts 205°
2026-05-04 14:24 32.31121 34.79780 5985 ft 168 kts 204°
2026-05-04 14:24 32.30005 34.79377 5986 ft 168 kts 204°
2026-05-04 14:25 32.28904 34.78973 5986 ft 168 kts 204°
2026-05-04 14:25 32.26671 34.78149 5991 ft 168 kts 204°
2026-05-04 14:25 32.25552 34.77737 5990 ft 168 kts 204°
2026-05-04 14:26 32.24434 34.77325 5991 ft 168 kts 204°
2026-05-04 14:26 32.23316 34.76913 5993 ft 167 kts 204°
2026-05-04 14:26 32.22204 34.76504 5994 ft 167 kts 204°
2026-05-04 14:26 32.21136 34.76050 5989 ft 165 kts 207°
2026-05-04 14:27 32.20040 34.75622 5991 ft 167 kts 205°
2026-05-04 14:27 32.18932 34.75198 5990 ft 168 kts 205°
2026-05-04 14:27 32.17828 34.74759 5990 ft 167 kts 206°
2026-05-04 14:27 32.16722 34.74315 5992 ft 168 kts 206°